Location: Home
(42.5358°N, 72.7383°W)
Time: 06:13:31
(UTC-05:00)

Courier 1B Rocket - Pass Details

Date: 03 December 2021
Orbit: 920 x 1202 km, 28.2° (Epoch: 25 January)

Event Time Altitude Azimuth Distance (km) Brightness Sun altitude
Rises 23:34:58 0° 237° (WSW) 3,607 - -69.7°
Reaches altitude 10° 23:38:16 10° 221° (SW) 2,632 - -69.7°
Maximum altitude 23:42:48 21° 175° (S) 1,947 - -69.7°
Drops below altitude 10° 23:47:16 10° 129° (SE) 2,603 - -69.7°
Sets 23:50:31 0° 113° (ESE) 3,555 - -69.6°
